sat.trackr.live / text

‹ back to catalog

HULIANWANG DIGUI-16

NORAD 62976 · 2025-030F

PAYLOAD ACTIVE UNKNOWN

§ Identity

Operator
Country
PRC
Launch date
2025-02-11
Launch site
WSC
Launch vehicle
Mass (kg)
RCS (m²)

External: N2YO · Heavens-Above · Gunter

§ Orbital elements

Epoch: 2026-05-25T04:31:40.772640Z

Period
108.33 min
Inclination
50.0059°
Eccentricity
0.0001097
Mean motion
13.29322305 rev/d
Perigee alt
1,148.5 km
Apogee alt
1,150.1 km
Semi-major
7,527.5 km
B*
5.3607e-5
RAAN
318.0992°
Arg perigee
93.3528°
Mean anomaly
266.7469°
Rev number
6,280

§ Raw data

HULIANWANG DIGUI-161 62976U 25030F   26145.18866635 -.00000099  00000+0  53607-4 0  99942 62976  50.0059 318.0992 0001097  93.3528 266.7469 13.29322305 62806

JSON: /api/v1/satellites/62976 · /tle

For live sub-satellite position, see the globe view (requires WebGL).

§ Visibility from observer

Set your observer location to see the next 7 days of passes ≥ 10°. The values pass through the URL so the page stays shareable.

No JS? Fill the form by hand. The geolocation button needs JavaScript.